FENGYUN 1C DEB, 30721

Orbit data source: Space-Track

FENGYUN 1C DEB, 30721 is space debris in SSO originally from a launch on Mon, 10 May 1999 UTC launched from the Taiyaun Space Center, China (TSC). Fengyun 1C debris stems from the Chinese weather satellite Fengyun-1C, which was intentionally destroyed by a Chinese anti-satellite missile in 2007. This event dramatically increased the amount of space debris, with thousands of trackable fragments posing hazards to satellites and human spaceflight. The Fengyun 1C debris cloud has become a focal point in discussions about space sustainability and the need for international regulations to prevent the creation of new debris.

Loading next visibility...
Identifier
30721, 1999-025ASF
Orbit
SSO
Country
Flag of CNCN / PRC
Related business
Manufacturer
Unknown
Mission
Spacecraft
Bus & Motor
Unknown
Mass
Unknown
Launch date (UTC)
1999-05-10 (27 years ago)
Launch vehicle
Unknown
Launch site
Taiyaun Space Center, China (TSC)
Object type
Payload
Rocket body
Debris
Shape & HBR
Unknown shape, 0.1 m
Radar Cross Section
Small (<0.1 m²)

Expand to show TLE details & history
Last TLE update: 1 day ago

TLE from 1 day ago
0 FENGYUN 1C DEB
1 30721U 99025ASF 26254.42908537  .00013784  00000-0  16607-2 0  9990
2 30721  98.7201  53.1534 0022524 196.9865 188.5256 14.83811144 18539
Epoch: 2026-09-11T10:17Z
TLE epoch observation values (Epoch: 2026-09-11T10:17:52.975Z)
Latitude
25.18991°
Longitude
-95.8845°
Altitude
636.025 km
Speed
7.534 km/s
True Right ascension
03h 16m 09s
True Declination
25° 03' 20"
Sunlit
Object was in full shadow at epoch
Visualization orbit readout
Latitude
Unknown
Longitude
Unknown
Altitude
Unknown
Speed
Unknown
Apparent Right ascension
Unknown
Apparent Declination
Unknown
Sunlit
N/A
Visualization observer readout
Local Sidereal Time
10:38:59
Azimuth
Unknown
Elevation
Unknown
Doppler factor
Unknown
Orbital elements
Apogee altitude
630.144 km
Perigee altitude
598.644 km
Semi-major axis
6,992.531 km
Eccentricity
0.00225
Inclination
98.7201°
RAAN
53.1534°
Arg. of periapsis
196.9865°
True anomaly
188.48744°
Mean anomaly
188.5256°
Eccentric anomaly
188.50651°
Mean motion
3.71186 °/min
Orbital period
96.99 mins
BSTAR
0.0016607
Loading maneuver chart data...
Computing Atmospheric mass density...
Loading historical data...
Loading historical data...
Loading historical data...
Loading historical data...
Loading historical data...
Loading historical data...
Loading historical data...

Documentation

Showing up to 5 results
|